{"data":{"norad_id":68124,"epoch":"2026-09-20T04:19:56.865792Z","epoch_age_seconds":83055,"freshness":"FRESH","line1":"1 68124U 26044Z   26263.18051928  .00022556  00000+0  69850-3 0  9990","line2":"2 68124  97.2853 225.1093 0002317  92.6020 267.5488 15.33462141 31588","mean_motion":15.33462141,"eccentricity":0.0002317,"inclination_deg":97.2853,"raan_deg":225.1093,"arg_perigee_deg":92.602,"mean_anomaly_deg":267.5488,"bstar":0.0006985,"rev_number":3158,"period_min":93.905154975717,"perigee_km":463.90650651697,"apogee_km":467.07784427685,"semimajor_km":6843.6291753969,"source":"CELESTRAK","updated_at":"2026-09-20T09:00:43.790360Z"}}